This is the latest recevied weather packets stored in our database for station/object KI7JYE. If no packets are shown the sender has not sent any weather packets the latest 10 day(s).
| Time | Temp. | Humidity | Pressure | Rain* | Wind** | Luminosity | Snow |
|---|---|---|---|---|---|---|---|
| 1777904962 | 12.22° C | 91% | 1012 hPa | 0 mm | - | 41 W/m² | - |
| 1777904660 | 12.22° C | 92% | 1012.3 hPa | 0 mm | - | 40 W/m² | - |
| 1777904356 | 11.67° C | 92% | 1012 hPa | 0 mm | - | 37 W/m² | - |
| 1777904053 | 11.67° C | 92% | 1011.8 hPa | 0 mm | - | 35 W/m² | - |
| 1777903750 | 11.67° C | 92% | 1011.6 hPa | 0 mm | - | 33 W/m² | - |
| 1777903446 | 11.67° C | 93% | 1011.8 hPa | 0 mm | - | 30 W/m² | - |
| 1777903143 | 11.67° C | 93% | 1011.6 hPa | 0 mm | - | 26 W/m² | - |
| 1777902839 | 11.67° C | 93% | 1011.4 hPa | 0 mm | - | 23 W/m² | - |
| 1777902537 | 11.67° C | 93% | 1011.5 hPa | 0 mm | - | 20 W/m² | - |
| 1777902233 | 11.67° C | 93% | 1011.3 hPa | 0 mm | - | 16 W/m² | - |
| 1777901932 | 11.67° C | 94% | 1011.6 hPa | 0 mm | - | 14 W/m² | - |
| 1777901629 | 11.11° C | 94% | 1011.2 hPa | 0 mm | - | 12 W/m² | - |
| 1777901326 | 11.11° C | 95% | 1011.3 hPa | 0 mm | - | 12 W/m² | - |
| 1777901023 | 11.11° C | 95% | 1011.2 hPa | 0 mm | - | 12 W/m² | - |
| 1777900721 | 11.11° C | 95% | 1011 hPa | 0 mm | - | 10 W/m² | - |
| 1777900418 | 11.11° C | 95% | 1011 hPa | 0 mm | - | 8 W/m² | - |
| 1777900115 | 11.11° C | 94% | 1010.8 hPa | 0 mm | - | 4 W/m² | - |
| 1777899811 | 11.11° C | 95% | 1010.6 hPa | 0 mm | - | 3 W/m² | - |
| 1777899508 | 10.56° C | 94% | 1010.6 hPa | 0 mm | - | 2 W/m² | - |
| 1777899206 | 11.11° C | 94% | 1010.5 hPa | 0 mm | - | 0 W/m² | - |
| 1777898903 | 11.11° C | 93% | 1010.3 hPa | 0 mm | - | 0 W/m² | - |
| 1777898600 | 11.11° C | 93% | 1010.3 hPa | 0 mm | - | 0 W/m² | - |
| 1777898297 | 11.11° C | 93% | 1010.4 hPa | 0 mm | - | 0 W/m² | - |
| 1777897995 | 11.11° C | 93% | 1010.1 hPa | 0 mm | - | 0 W/m² | - |
| 1777897691 | 11.67° C | 92% | 1010.4 hPa | 0 mm | - | 0 W/m² | - |
* Rain latest hour (hover to see other rain measurements)
** Current wind speed in m/s (hover to see current wind gust speed)